When you browse on this site, cookies collect data to enhance your experience and personalize the content and advertising you see.
Visit our Privacy Policy to learn more. By continuing to use the site, you agree to this use of cookies and data.
  • In Romania
  • List of Countries
  • For 7 days
  • Water Temperature
  • Weather Map
  • Weather Widgets
  • user-avatar
    Login

    Hourly Weather Belém

    Today, 23 November, Saturday

    Time Temperature Precipitation Wind Pressure Humidity
    00:00 +25°C° 0 mm 3 mps 757 mmHg 94%
    01:00 +25°C° 0 mm 2 mps 757 mmHg 94%
    02:00 +25°C° 0 mm 2 mps 756 mmHg 95%
    03:00 +25°C° 0 mm 2 mps 756 mmHg 95%
    04:00 +25°C° 0 mm 2 mps 756 mmHg 95%
    05:00 +24°C° 0 mm 1 mps 756 mmHg 96%
    06:00 +24°C° 0 mm 1 mps 757 mmHg 96%
    07:00 +26°C° 0 mm 1 mps 757 mmHg 89%
    08:00 +28°C° 0 mm 1 mps 758 mmHg 83%
    09:00 +29°C° 0 mm 1 mps 758 mmHg 76%
    10:00 +31°C° 0 mm 1 mps 758 mmHg 69%
    11:00 +32°C° 0 mm 1 mps 758 mmHg 62%
    12:00 +34°C° 0 mm 1 mps 757 mmHg 55%
    13:00 +35°C° 0 mm 2 mps 756 mmHg 55%
    14:00 +35°C° 0 mm 2 mps 756 mmHg 55%
    15:00 +35°C° 0 mm 2 mps 755 mmHg 55%
    16:00 +32°C° 0.1 mm 2 mps 755 mmHg 63%
    17:00 +30°C° 0.1 mm 3 mps 755 mmHg 71%
    18:00 +29°C° 0.1 mm 4 mps 755 mmHg 79%
    19:00 +28°C° 0 mm 4 mps 756 mmHg 81%
    20:00 +28°C° 0 mm 3 mps 756 mmHg 83%
    21:00 +27°C° 0 mm 3 mps 757 mmHg 85%
    22:00 +27°C° 0 mm 3 mps 757 mmHg 86%
    23:00 +27°C° 0 mm 3 mps 757 mmHg 88%

    Tomorrow, 24 November, Sunday

    Time Temperature Precipitation Wind Pressure Humidity
    00:00 +26°C° 0 mm 3 mps 757 mmHg 89%
    01:00 +26°C° 0 mm 3 mps 756 mmHg 91%
    02:00 +26°C° 0 mm 2 mps 756 mmHg 93%
    03:00 +25°C° 0 mm 2 mps 755 mmHg 94%
    04:00 +25°C° 0 mm 2 mps 755 mmHg 95%
    05:00 +25°C° 0 mm 2 mps 756 mmHg 96%
    06:00 +25°C° 0 mm 2 mps 756 mmHg 96%
    07:00 +27°C° 0 mm 2 mps 756 mmHg 87%
    08:00 +29°C° 0 mm 2 mps 757 mmHg 78%
    09:00 +31°C° 0 mm 2 mps 757 mmHg 68%
    10:00 +34°C° 0 mm 2 mps 757 mmHg 61%
    11:00 +35°C° 0 mm 2 mps 757 mmHg 53%
    12:00 +37°C° 0 mm 2 mps 756 mmHg 45%
    13:00 +37°C° 0.1 mm 3 mps 755 mmHg 48%
    14:00 +36°C° 0.1 mm 3 mps 755 mmHg 51%
    15:00 +36°C° 0.1 mm 4 mps 754 mmHg 54%
    16:00 +34°C° 0.1 mm 4 mps 754 mmHg 62%
    17:00 +32°C° 0.1 mm 4 mps 754 mmHg 69%
    18:00 +30°C° 0.1 mm 5 mps 754 mmHg 77%
    19:00 +29°C° 0 mm 4 mps 755 mmHg 78%
    20:00 +29°C° 0 mm 4 mps 755 mmHg 79%
    21:00 +28°C° 0 mm 4 mps 756 mmHg 80%
    22:00 +28°C° 0 mm 4 mps 756 mmHg 83%
    23:00 +27°C° 0 mm 3 mps 756 mmHg 85%

    Day after tomorrow, 25 November, Monday

    Time Temperature Precipitation Wind Pressure Humidity
    00:00 +27°C° 0 mm 3 mps 756 mmHg 88%
    01:00 +27°C° 0 mm 3 mps 755 mmHg 89%
    02:00 +26°C° 0 mm 3 mps 755 mmHg 90%
    03:00 +26°C° 0 mm 3 mps 755 mmHg 91%
    04:00 +26°C° 0 mm 3 mps 755 mmHg 91%
    05:00 +26°C° 0 mm 3 mps 755 mmHg 92%
    06:00 +26°C° 0 mm 3 mps 755 mmHg 93%
    07:00 +28°C° 0 mm 3 mps 756 mmHg 84%
    08:00 +29°C° 0 mm 3 mps 756 mmHg 75%
    09:00 +31°C° 0 mm 3 mps 757 mmHg 67%
    10:00 +34°C° 0 mm 3 mps 756 mmHg 61%
    11:00 +35°C° 0 mm 3 mps 756 mmHg 54%
    12:00 +37°C° 0 mm 3 mps 756 mmHg 48%
    13:00 +36°C° 0.3 mm 4 mps 755 mmHg 54%
    14:00 +35°C° 0.3 mm 4 mps 754 mmHg 60%
    15:00 +33°C° 0.3 mm 5 mps 754 mmHg 66%
    16:00 +32°C° 0.7 mm 5 mps 754 mmHg 71%
    17:00 +30°C° 0.7 mm 4 mps 754 mmHg 76%
    18:00 +29°C° 0.7 mm 4 mps 754 mmHg 81%
    19:00 +29°C° 0.1 mm 4 mps 754 mmHg 82%
    20:00 +28°C° 0.1 mm 4 mps 755 mmHg 83%
    21:00 +27°C° 0.1 mm 4 mps 756 mmHg 83%
    22:00 +27°C° 0 mm 4 mps 755 mmHg 84%
    23:00 +27°C° 0 mm 4 mps 755 mmHg 85%

    26 November, Tuesday

    Time Temperature Precipitation Wind Pressure Humidity
    00:00 +27°C° 0 mm 4 mps 755 mmHg 86%
    01:00 +26°C° 0 mm 3 mps 755 mmHg 87%
    02:00 +26°C° 0 mm 3 mps 755 mmHg 89%
    03:00 +26°C° 0 mm 3 mps 754 mmHg 91%
    04:00 +25°C° 0 mm 3 mps 755 mmHg 91%
    05:00 +25°C° 0 mm 3 mps 755 mmHg 92%
    06:00 +25°C° 0 mm 3 mps 755 mmHg 92%
    07:00 +27°C° 0 mm 3 mps 756 mmHg 84%
    08:00 +29°C° 0 mm 3 mps 756 mmHg 76%
    09:00 +31°C° 0 mm 3 mps 757 mmHg 67%
    10:00 +34°C° 0 mm 3 mps 756 mmHg 62%
    11:00 +35°C° 0 mm 3 mps 756 mmHg 56%
    12:00 +36°C° 0 mm 2 mps 756 mmHg 51%
    13:00 +36°C° 0.1 mm 3 mps 755 mmHg 53%
    14:00 +35°C° 0.1 mm 3 mps 755 mmHg 56%
    15:00 +35°C° 0.1 mm 4 mps 754 mmHg 58%
    16:00 +34°C° 0.1 mm 4 mps 754 mmHg 63%
    17:00 +32°C° 0.1 mm 4 mps 754 mmHg 69%
    18:00 +30°C° 0.1 mm 4 mps 754 mmHg 74%
    19:00 +29°C° 0.1 mm 4 mps 755 mmHg 77%
    20:00 +28°C° 0.1 mm 4 mps 755 mmHg 81%
    21:00 +28°C° 0.1 mm 4 mps 756 mmHg 84%
    22:00 +28°C° 0 mm 4 mps 756 mmHg 83%
    23:00 +27°C° 0 mm 4 mps 756 mmHg 83%

    27 November, Wednesday

    Time Temperature Precipitation Wind Pressure Humidity
    00:00 +27°C° 0 mm 4 mps 756 mmHg 82%
    01:00 +27°C° 0 mm 4 mps 755 mmHg 85%
    02:00 +26°C° 0 mm 3 mps 755 mmHg 87%
    03:00 +26°C° 0 mm 3 mps 754 mmHg 89%
    04:00 +25°C° 0 mm 3 mps 755 mmHg 91%
    05:00 +25°C° 0 mm 3 mps 755 mmHg 92%
    06:00 +25°C° 0 mm 3 mps 756 mmHg 93%
    07:00 +27°C° 0 mm 3 mps 756 mmHg 83%
    08:00 +29°C° 0 mm 3 mps 757 mmHg 73%
    09:00 +31°C° 0 mm 3 mps 757 mmHg 63%
    10:00 +34°C° 0 mm 3 mps 757 mmHg 57%
    11:00 +35°C° 0 mm 3 mps 756 mmHg 52%
    12:00 +37°C° 0 mm 2 mps 756 mmHg 46%
    13:00 +36°C° 0 mm 3 mps 755 mmHg 49%
    14:00 +36°C° 0 mm 4 mps 754 mmHg 52%
    15:00 +35°C° 0 mm 5 mps 754 mmHg 55%
    16:00 +34°C° 0.1 mm 5 mps 754 mmHg 60%
    17:00 +33°C° 0.1 mm 4 mps 754 mmHg 65%
    18:00 +30°C° 0.1 mm 4 mps 754 mmHg 70%
    19:00 +30°C° 0 mm 4 mps 755 mmHg 72%
    20:00 +29°C° 0 mm 4 mps 755 mmHg 74%
    21:00 +28°C° 0 mm 4 mps 756 mmHg 76%
    22:00 +28°C° 0 mm 4 mps 756 mmHg 78%
    23:00 +28°C° 0 mm 4 mps 756 mmHg 80%

    28 November, Thursday

    Time Temperature Precipitation Wind Pressure Humidity
    00:00 +27°C° 0 mm 4 mps 756 mmHg 82%
    01:00 +27°C° 0 mm 4 mps 755 mmHg 84%
    02:00 +27°C° 0 mm 3 mps 755 mmHg 85%
    03:00 +26°C° 0 mm 3 mps 754 mmHg 87%
    04:00 +26°C° 0 mm 3 mps 755 mmHg 89%
    05:00 +26°C° 0 mm 3 mps 755 mmHg 90%
    06:00 +25°C° 0 mm 3 mps 755 mmHg 92%
    07:00 +27°C° 0 mm 3 mps 756 mmHg 83%
    08:00 +29°C° 0 mm 3 mps 756 mmHg 74%
    09:00 +31°C° 0 mm 3 mps 757 mmHg 65%
    10:00 +34°C° 0 mm 3 mps 757 mmHg 58%
    11:00 +35°C° 0 mm 3 mps 756 mmHg 52%
    12:00 +37°C° 0 mm 3 mps 756 mmHg 46%
    13:00 +36°C° 0.1 mm 3 mps 755 mmHg 51%
    14:00 +35°C° 0.1 mm 3 mps 754 mmHg 56%
    15:00 +33°C° 0.1 mm 4 mps 754 mmHg 62%
    16:00 +32°C° 0 mm 4 mps 754 mmHg 65%
    17:00 +32°C° 0 mm 4 mps 754 mmHg 69%
    18:00 +30°C° 0 mm 4 mps 754 mmHg 73%
    19:00 +29°C° 0 mm 4 mps 754 mmHg 74%
    20:00 +29°C° 0 mm 4 mps 755 mmHg 75%
    21:00 +28°C° 0 mm 4 mps 755 mmHg 76%
    22:00 +28°C° 0 mm 4 mps 755 mmHg 78%
    23:00 +27°C° 0 mm 3 mps 755 mmHg 80%
    Show more